Time,TemperatureF,DewpointF,PressureIn,WindDirection,WindDirectionDegrees,WindSpeedMPH,WindSpeedGustMPH,Humidity,HourlyPrecipIn,Conditions,Clouds,dailyrainin,SoftwareType,DateUTC
2013-11-29 00:13:00,24.2,12.0,30.43,WSW,249,0.0,2.0,59,0.00,,,0.00,weatherlink.com 1.10,2013-11-29 05:13:00,
2013-11-29 00:28:00,24.0,12.0,30.43,WSW,249,0.0,2.0,60,0.00,,,0.00,weatherlink.com 1.10,2013-11-29 05:28:00,
2013-11-29 00:43:00,23.9,12.0,30.44,SW,223,0.0,1.0,61,0.00,,,0.00,weatherlink.com 1.10,2013-11-29 05:43:00,
2013-11-29 00:58:00,24.0,13.0,30.44,SW,236,0.0,2.0,62,0.00,,,0.00,weatherlink.com 1.10,2013-11-29 05:58:00,
2013-11-29 01:13:00,24.3,13.0,30.45,West,273,0.0,3.0,62,0.00,,,0.00,weatherlink.com 1.10,2013-11-29 06:13:00,
2013-11-29 01:28:00,24.7,13.0,30.45,West,281,5.0,5.0,62,0.00,,,0.00,weatherlink.com 1.10,2013-11-29 06:28:00,
2013-11-29 01:43:00,25.0,13.0,30.45,West,272,4.0,4.0,61,0.00,,,0.00,weatherlink.com 1.10,2013-11-29 06:43:00,
2013-11-29 01:58:00,25.0,13.0,30.45,West,273,0.0,1.0,61,0.00,,,0.00,weatherlink.com 1.10,2013-11-29 06:58:00,
2013-11-29 02:13:00,25.1,13.0,30.46,SW,232,0.0,2.0,61,0.00,,,0.00,weatherlink.com 1.10,2013-11-29 07:13:00,
2013-11-29 02:28:00,25.2,13.0,30.46,West,264,0.0,2.0,61,0.00,,,0.00,weatherlink.com 1.10,2013-11-29 07:28:00,
2013-11-29 02:43:00,25.2,13.0,30.46,SW,221,0.0,4.0,61,0.00,,,0.00,weatherlink.com 1.10,2013-11-29 07:43:00,
2013-11-29 02:58:00,25.3,14.0,30.46,West,276,0.0,2.0,62,0.00,,,0.00,weatherlink.com 1.10,2013-11-29 07:58:00,
2013-11-29 03:13:00,25.3,14.0,30.46,SW,226,0.0,2.0,62,0.00,,,0.00,weatherlink.com 1.10,2013-11-29 08:13:00,
2013-11-29 03:29:00,25.4,14.0,30.46,WSW,244,0.0,1.0,62,0.00,,,0.00,weatherlink.com 1.10,2013-11-29 08:29:00,
2013-11-29 03:43:00,25.4,14.0,30.46,WSW,242,1.0,3.0,63,0.00,,,0.00,weatherlink.com 1.10,2013-11-29 08:43:00,
2013-11-29 03:58:00,25.4,14.0,30.46,SW,230,0.0,3.0,63,0.00,,,0.00,weatherlink.com 1.10,2013-11-29 08:58:00,
2013-11-29 04:14:00,25.3,14.0,30.46,WSW,239,0.0,2.0,63,0.00,,,0.00,weatherlink.com 1.10,2013-11-29 09:14:00,
2013-11-29 04:29:00,25.4,15.0,30.46,WSW,252,0.0,1.0,64,0.00,,,0.00,weatherlink.com 1.10,2013-11-29 09:29:00,
2013-11-29 04:44:00,25.4,15.0,30.47,SW,223,0.0,3.0,64,0.00,,,0.00,weatherlink.com 1.10,2013-11-29 09:44:00,
2013-11-29 04:59:00,25.6,15.0,30.47,WNW,286,1.0,4.0,64,0.00,,,0.00,weatherlink.com 1.10,2013-11-29 09:59:00,
2013-11-29 05:14:00,25.7,15.0,30.48,West,261,2.0,2.0,64,0.00,,,0.00,weatherlink.com 1.10,2013-11-29 10:14:00,
2013-11-29 05:29:00,25.7,15.0,30.48,SSE,150,0.0,3.0,64,0.00,,,0.00,weatherlink.com 1.10,2013-11-29 10:29:00,
2013-11-29 05:44:00,25.7,15.0,30.48,SW,234,0.0,1.0,64,0.00,,,0.00,weatherlink.com 1.10,2013-11-29 10:44:00,
2013-11-29 05:59:00,25.5,15.0,30.49,West,259,0.0,1.0,65,0.00,,,0.00,weatherlink.com 1.10,2013-11-29 10:59:00,
2013-11-29 06:14:00,25.0,15.0,30.50,WSW,237,0.0,1.0,65,0.00,,,0.00,weatherlink.com 1.10,2013-11-29 11:14:00,
2013-11-29 06:29:00,24.2,15.0,30.50,WSW,240,0.0,0.0,67,0.00,,,0.00,weatherlink.com 1.10,2013-11-29 11:29:00,
2013-11-29 06:44:00,23.6,15.0,30.50,WSW,240,0.0,0.0,69,0.00,,,0.00,weatherlink.com 1.10,2013-11-29 11:44:00,
2013-11-29 06:59:00,22.9,15.0,30.51,WSW,240,0.0,0.0,71,0.00,,,0.00,weatherlink.com 1.10,2013-11-29 11:59:00,
2013-11-29 07:14:00,23.0,15.0,30.52,WSW,240,0.0,1.0,72,0.00,,,0.00,weatherlink.com 1.10,2013-11-29 12:14:00,
2013-11-29 07:29:00,23.3,15.0,30.52,WSW,239,0.0,1.0,71,0.00,,,0.00,weatherlink.com 1.10,2013-11-29 12:29:00,
2013-11-29 07:44:00,24.2,16.0,30.53,WSW,240,0.0,0.0,72,0.00,,,0.00,weatherlink.com 1.10,2013-11-29 12:44:00,
2013-11-29 07:59:00,25.7,17.0,30.54,NW,310,0.0,2.0,69,0.00,,,0.00,weatherlink.com 1.10,2013-11-29 12:59:00,
2013-11-29 08:14:00,26.3,16.0,30.54,NNW,338,0.0,2.0,66,0.00,,,0.00,weatherlink.com 1.10,2013-11-29 13:14:00,
2013-11-29 08:29:00,26.9,16.0,30.55,WNW,301,0.0,3.0,64,0.00,,,0.00,weatherlink.com 1.10,2013-11-29 13:29:00,
2013-11-29 08:44:00,27.2,16.0,30.56,NNE,17,3.0,7.0,62,0.00,,,0.00,weatherlink.com 1.10,2013-11-29 13:44:00,
2013-11-29 08:59:00,27.9,16.0,30.56,NW,305,0.0,5.0,61,0.00,,,0.00,weatherlink.com 1.10,2013-11-29 13:59:00,
2013-11-29 09:14:00,28.1,15.0,30.56,West,275,1.0,3.0,59,0.00,,,0.00,weatherlink.com 1.10,2013-11-29 14:14:00,
2013-11-29 09:29:00,28.2,15.0,30.56,NW,307,0.0,5.0,59,0.00,,,0.00,weatherlink.com 1.10,2013-11-29 14:29:00,
2013-11-29 09:44:00,28.8,16.0,30.56,NNW,327,0.0,4.0,58,0.00,,,0.00,weatherlink.com 1.10,2013-11-29 14:44:00,
2013-11-29 09:59:00,28.8,15.0,30.56,WSW,242,1.0,4.0,56,0.00,,,0.00,weatherlink.com 1.10,2013-11-29 14:59:00,
2013-11-29 10:14:00,29.7,16.0,30.56,NNW,331,0.0,3.0,56,0.00,,,0.00,weatherlink.com 1.10,2013-11-29 15:14:00,
2013-11-29 10:29:00,29.9,15.0,30.56,WNW,303,2.0,3.0,54,0.00,,,0.00,weatherlink.com 1.10,2013-11-29 15:29:00,
2013-11-29 10:44:00,30.0,14.0,30.55,WNW,296,5.0,7.0,52,0.00,,,0.00,weatherlink.com 1.10,2013-11-29 15:44:00,
2013-11-29 10:59:00,30.8,15.0,30.55,SW,219,0.0,4.0,52,0.00,,,0.00,weatherlink.com 1.10,2013-11-29 15:59:00,
2013-11-29 11:14:00,30.6,14.0,30.54,NNE,17,1.0,11.0,50,0.00,,,0.00,weatherlink.com 1.10,2013-11-29 16:14:00,
2013-11-29 11:29:00,31.0,14.0,30.54,West,273,1.0,8.0,49,0.00,,,0.00,weatherlink.com 1.10,2013-11-29 16:29:00,
2013-11-29 11:44:00,31.1,14.0,30.54,WNW,294,3.0,6.0,49,0.00,,,0.00,weatherlink.com 1.10,2013-11-29 16:44:00,
2013-11-29 12:00:00,31.7,14.0,30.54,NE,34,1.0,4.0,48,0.00,,,0.00,weatherlink.com 1.10,2013-11-29 17:00:00,
2013-11-29 12:15:00,31.7,14.0,30.54,NE,46,4.0,7.0,48,0.00,,,0.00,weatherlink.com 1.10,2013-11-29 17:15:00,
2013-11-29 12:30:00,32.3,14.0,30.54,West,280,2.0,4.0,47,0.00,,,0.00,weatherlink.com 1.10,2013-11-29 17:30:00,
2013-11-29 12:45:00,32.4,14.0,30.54,West,281,2.0,5.0,46,0.00,,,0.00,weatherlink.com 1.10,2013-11-29 17:45:00,
2013-11-29 13:00:00,32.7,13.0,30.54,West,279,3.0,7.0,44,0.00,,,0.00,weatherlink.com 1.10,2013-11-29 18:00:00,
2013-11-29 13:15:00,33.5,12.0,30.54,NW,324,2.0,7.0,41,0.00,,,0.00,weatherlink.com 1.10,2013-11-29 18:15:00,
2013-11-29 13:30:00,34.0,12.0,30.54,NNW,348,4.0,5.0,41,0.00,,,0.00,weatherlink.com 1.10,2013-11-29 18:30:00,
2013-11-29 13:45:00,34.1,10.0,30.53,WNW,295,2.0,8.0,37,0.00,,,0.00,weatherlink.com 1.10,2013-11-29 18:45:00,
2013-11-29 14:00:00,34.1,9.0,30.54,NW,314,6.0,7.0,35,0.00,,,0.00,weatherlink.com 1.10,2013-11-29 19:00:00,
2013-11-29 14:15:00,34.2,9.0,30.54,NNW,327,1.0,5.0,35,0.00,,,0.00,weatherlink.com 1.10,2013-11-29 19:15:00,
2013-11-29 14:30:00,34.0,8.0,30.54,NW,309,0.0,7.0,34,0.00,,,0.00,weatherlink.com 1.10,2013-11-29 19:30:00,
2013-11-29 14:45:00,33.6,9.0,30.55,WNW,300,1.0,9.0,35,0.00,,,0.00,weatherlink.com 1.10,2013-11-29 19:45:00,
2013-11-29 15:00:00,33.2,9.0,30.55,SW,215,4.0,8.0,36,0.00,,,0.00,weatherlink.com 1.10,2013-11-29 20:00:00,
2013-11-29 15:15:00,32.8,8.0,30.56,NNE,13,2.0,5.0,36,0.00,,,0.00,weatherlink.com 1.10,2013-11-29 20:15:00,
2013-11-29 15:30:00,32.6,8.0,30.56,WSW,240,0.0,8.0,36,0.00,,,0.00,weatherlink.com 1.10,2013-11-29 20:30:00,
2013-11-29 15:45:00,32.2,8.0,30.57,NNW,332,0.0,5.0,37,0.00,,,0.00,weatherlink.com 1.10,2013-11-29 20:45:00,
2013-11-29 16:00:00,31.3,8.0,30.57,NW,324,0.0,5.0,38,0.00,,,0.00,weatherlink.com 1.10,2013-11-29 21:00:00,
2013-11-29 16:15:00,30.6,8.0,30.58,NNE,25,0.0,6.0,39,0.00,,,0.00,weatherlink.com 1.10,2013-11-29 21:15:00,
2013-11-29 16:30:00,30.2,8.0,30.59,West,277,0.0,4.0,40,0.00,,,0.00,weatherlink.com 1.10,2013-11-29 21:30:00,
2013-11-29 16:45:00,29.8,8.0,30.60,WNW,291,2.0,3.0,40,0.00,,,0.00,weatherlink.com 1.10,2013-11-29 21:45:00,
2013-11-29 17:00:00,29.3,8.0,30.61,NW,313,2.0,2.0,41,0.00,,,0.00,weatherlink.com 1.10,2013-11-29 22:00:00,
2013-11-29 17:15:00,28.8,7.0,30.61,NNW,348,0.0,3.0,40,0.00,,,0.00,weatherlink.com 1.10,2013-11-29 22:15:00,
2013-11-29 17:30:00,28.4,5.0,30.62,NW,316,0.0,3.0,37,0.00,,,0.00,weatherlink.com 1.10,2013-11-29 22:30:00,
2013-11-29 17:45:00,28.1,4.0,30.63,West,275,0.0,2.0,36,0.00,,,0.00,weatherlink.com 1.10,2013-11-29 22:45:00,
2013-11-29 18:00:00,27.9,2.0,30.64,WNW,292,0.0,3.0,33,0.00,,,0.00,weatherlink.com 1.10,2013-11-29 23:00:00,
2013-11-29 18:15:00,27.5,2.0,30.65,NNW,332,2.0,4.0,33,0.00,,,0.00,weatherlink.com 1.10,2013-11-29 23:15:00,
2013-11-29 18:30:00,27.1,1.0,30.66,North,11,2.0,3.0,32,0.00,,,0.00,weatherlink.com 1.10,2013-11-29 23:30:00,
2013-11-29 18:45:00,26.8,3.0,30.66,North,360,0.0,2.0,36,0.00,,,0.00,weatherlink.com 1.10,2013-11-29 23:45:00,
2013-11-29 19:00:00,26.5,4.0,30.67,North,355,0.0,2.0,38,0.00,,,0.00,weatherlink.com 1.10,2013-11-30 00:00:00,
2013-11-29 19:15:00,26.1,5.0,30.67,NNW,344,0.0,3.0,41,0.00,,,0.00,weatherlink.com 1.10,2013-11-30 00:15:00,
2013-11-29 19:30:00,25.8,5.0,30.67,NW,315,0.0,5.0,41,0.00,,,0.00,weatherlink.com 1.10,2013-11-30 00:30:00,
2013-11-29 19:45:00,25.5,5.0,30.68,NE,40,1.0,3.0,42,0.00,,,0.00,weatherlink.com 1.10,2013-11-30 00:45:00,
2013-11-29 20:00:00,25.4,6.0,30.68,NW,326,0.0,5.0,43,0.00,,,0.00,weatherlink.com 1.10,2013-11-30 01:00:00,
2013-11-29 20:15:00,25.2,5.0,30.68,NNW,339,2.0,6.0,43,0.00,,,0.00,weatherlink.com 1.10,2013-11-30 01:15:00,
2013-11-29 20:30:00,24.9,6.0,30.69,West,276,0.0,2.0,45,0.00,,,0.00,weatherlink.com 1.10,2013-11-30 01:30:00,
2013-11-29 20:45:00,24.5,6.0,30.69,NW,311,0.0,2.0,46,0.00,,,0.00,weatherlink.com 1.10,2013-11-30 01:45:00,
2013-11-29 21:00:00,24.2,6.0,30.70,NNW,327,0.0,2.0,46,0.00,,,0.00,weatherlink.com 1.10,2013-11-30 02:00:00,
2013-11-29 21:15:00,23.9,6.0,30.71,NNW,341,0.0,2.0,47,0.00,,,0.00,weatherlink.com 1.10,2013-11-30 02:15:00,
2013-11-29 21:31:00,23.5,7.0,30.71,NNW,333,0.0,1.0,49,0.00,,,0.00,weatherlink.com 1.10,2013-11-30 02:31:00,
2013-11-29 21:46:00,23.1,7.0,30.71,NW,326,0.0,1.0,50,0.00,,,0.00,weatherlink.com 1.10,2013-11-30 02:46:00,
2013-11-29 22:01:00,22.8,7.0,30.71,NNE,22,0.0,2.0,51,0.00,,,0.00,weatherlink.com 1.10,2013-11-30 03:01:00,
2013-11-29 22:16:00,22.6,7.0,30.70,NNW,341,0.0,4.0,51,0.00,,,0.00,weatherlink.com 1.10,2013-11-30 03:16:00,
2013-11-29 22:31:00,22.5,7.0,30.71,West,277,3.0,7.0,52,0.00,,,0.00,weatherlink.com 1.10,2013-11-30 03:31:00,
2013-11-29 22:46:00,22.5,7.0,30.72,NE,44,0.0,5.0,52,0.00,,,0.00,weatherlink.com 1.10,2013-11-30 03:46:00,
2013-11-29 23:01:00,22.2,7.0,30.73,NE,49,0.0,3.0,53,0.00,,,0.00,weatherlink.com 1.10,2013-11-30 04:01:00,
2013-11-29 23:16:00,21.6,8.0,30.73,NNE,15,0.0,1.0,55,0.00,,,0.00,weatherlink.com 1.10,2013-11-30 04:16:00,
2013-11-29 23:31:00,21.1,8.0,30.73,WNW,301,0.0,1.0,56,0.00,,,0.00,weatherlink.com 1.10,2013-11-30 04:31:00,
2013-11-29 23:46:00,20.5,8.0,30.73,West,261,0.0,1.0,58,0.00,,,0.00,weatherlink.com 1.10,2013-11-30 04:46:00,